{"data":{"norad_id":65292,"intl_designator":"2025-184V","name":"STARLINK-35017","alt_names":[],"object_type":"PAYLOAD","status":"ACTIVE","operator":null,"country":"US","launch_date":"2025-08-22","launch_site_code":"AFWTR","launch_vehicle":null,"mission":null,"orbit_class":"UNKNOWN","rcs_meters":null,"size_class":null,"mass_kg":null,"dimensions":null,"purposes":["comms"],"wikipedia_slug":null,"has_3d_model":false,"image_url":null,"decayed_at":null,"tle_current":{"epoch":"2026-09-20T09:49:04.115424Z","epoch_age_seconds":125713,"freshness":"FRESH","line1":"1 65292U 25184V   26263.40907541  .00014623  00000+0  45449-3 0  9997","line2":"2 65292  97.2836 311.4278 0001389  90.6771 269.4630 15.33438954 60661","mean_motion":15.33438954,"eccentricity":0.0001389,"inclination_deg":97.2836,"raan_deg":311.4278,"arg_perigee_deg":90.6771,"mean_anomaly_deg":269.463,"bstar":0.00045449,"rev_number":6066,"period_min":93.906574907579,"perigee_km":464.61057350465,"apogee_km":466.51175285438,"semimajor_km":6843.6981631795,"source":"CELESTRAK","updated_at":"2026-09-21T09:00:35.567533Z"}}}